Location: Moscow Pond
(43.6842°N, 73.2366°W)
Time: 21:26:38
(UTC+00:00)

Cosmos 1980 - Pass Details

Date: 08 November 2025
Orbit: 836 x 847 km, 71.0° (Epoch: 10 December)

Event Time Altitude Azimuth Distance (km) Brightness Sun altitude
Rises 10:02:50 0° 202° (SSW) 3,374 6.7 -17.5°
Reaches altitude 10° 10:05:15 10° 202° (SSW) 2,446 6.0 -17.1°
Maximum altitude 10:10:52 87° 116° (ESE) 848 3.7 -16.0°
Drops below altitude 10° 10:16:33 10° 26° (NNE) 2,470 6.3 -15.0°
Sets 10:19:01 0° 26° (NNE) 3,410 7.1 -14.6°
